User: anonymous   Login
Location: ????????
(37.9452°N, 23.1472°E)
Time: 19:59:26
(UTC+00:00)
Language:

Cosmos 1980 Rocket - Orbit

View from above orbital plane
View from above orbital plane
View from above satellite
View from above satellite

Ground track
Ground track

The orbit data is extracted from the following two-line orbital elements,

1 19650U 88102B   24172.07008426  .00000266  00000-0  15913-3 0  9999
2 19650  71.0006  31.9152 0016268 249.2758 110.6622 14.15978503838323
Epoch (UTC): 20 June 2024 01:40:55
Eccentricity: 0.0016268
inclination: 71.0006°
perigee height: 827 km
apogee height: 851 km
right ascension of ascending node: 31.9152°
argument of perigee: 249.2758°
revolutions per day: 14.15978503
mean anomaly at epoch: 110.6622°
orbit number at epoch: 83832

The dashed part of the orbit path shows where the satellite is in the earth's shadow,  

DLR